STARLINK-32741, 62526

Orbit data source: Space-Track

STARLINK-32741, 62526 is a payload satellite owned by SpaceX/Seattle (US) in LEO that was launched on Wed, 08 Jan 2025 UTC via an FALCON 9 launch vehicle from the Air Force Eastern Test Range (AFETR). Payload-class satellites include a variety of spacecraft equipped with specific instruments for various scientific and technological missions. These include communications satellites like Starlink; space stations such as the ISS; scientific satellites like the Hubble; Earth observation satellites from companies like Planet Labs, Umbra, and HawkEye 360; GPS; miniature CubeSats for education and research; and military/defense satellites.

Loading next visibility...
Identifier
62526, 2025-004R
Orbit
LEO
Country
Flag of USUS
Related business
Manufacturer
SpaceX/Seattle
Mission
Operational Commercial Communications
Bus & Motor
STARLINK V2M, Unknown motor
Mass
730 kg wet, ~700 kg dry
Launch date (UTC)
2025-01-08 (1 year ago)
Launch vehicle
FALCON 9
Launch site
Air Force Eastern Test Range (AFETR)
Object type
Payload
Rocket body
Debris
Shape & HBR
Box + 2 Pan, 17.7 m
Radar Cross Section
33.884 m², Large (>1 m²)

Expand to show TLE details & history
Last TLE update: 8 hours ago

TLE from 8 hours ago
0 STARLINK-32741
1 62526U 25004R   26095.28475013  .00046865  00000-0  17003-2 0  9996
2 62526  43.0016  66.4152 0001563 266.7480  93.3193 15.27609364 70568
Epoch: 2026-04-05T06:50Z
TLE epoch observation values (Epoch: 2026-04-05T06:50:02.411Z)
Latitude
Longitude
130.31278°
Altitude
482.799 km
Speed
7.626 km/s
True Right ascension
04h 25m 39s
True Declination
0° 00' 00"
Sunlit
Object was in daylight at epoch
Visualization orbit readout
Latitude
Unknown
Longitude
Unknown
Altitude
Unknown
Speed
Unknown
Apparent Right ascension
Unknown
Apparent Declination
Unknown
Sunlit
N/A
Visualization observer readout
Local Sidereal Time
21:11:36
Azimuth
Unknown
Elevation
Unknown
Doppler factor
Unknown
Orbital elements
Apogee altitude
485.979 km
Perigee altitude
483.833 km
Semi-major axis
6,863.043 km
Eccentricity
0.00016
Inclination
43.0016°
RAAN
66.4152°
Arg. of periapsis
266.748°
True anomaly
93.33718°
Mean anomaly
93.3193°
Eccentric anomaly
93.32824°
Mean motion
3.8174 °/min
Orbital period
94.3 mins
BSTAR
0.0017003
Loading maneuver chart data...
Computing Atmospheric mass density...
Loading historical data...
Loading historical data...
Loading historical data...
Loading historical data...
Loading historical data...
Loading historical data...
Loading historical data...

Documentation

Showing up to 5 results
|